闪电 1-36星 (MOLNIYA 1-36)

导读

MOLNIYA 1-36(闪电1-36)是独联体(CIS)继承自苏联航天项目的通信卫星,于1977年3月24日成功发射。作为苏联“闪电”系列通信卫星的一员,它运行在高椭圆闪电轨道上,可覆盖北极及北半球高纬度区域,承担苏联国内远程通信与电视转播任务,为广袤国土提供了稳定的通信中继服务,是冷战时期苏联航天通信体系的重要组成部分。

Basic Information
目录编号:
9880
目录名称:
MOLNIYA 1-36
国际标识:
1977-021A
轨道中心:
EARTH
卫星名称:
闪电 1-36星
卫星全名:
闪电 1-36星 (MOLNIYA 1-36)
卫星状态:
在轨 (已飞行18022 天)
发射日期:
1977-03-24 UTC
国别 :
俄罗斯(独联体) (CIS)
星等 :
--
Orbit Information
数据来源 国际轨道数据 AOE轨道数据
星历时间 2026-07-25T01:42:47+0800
2天前
查看轨道信息
2026-07-22T12:00:00+0800
5天前
查看轨道信息
半长轴 26579.577km 26578.914km
偏心率 0.6756662 0.675601
轨道倾角 63.662° 63.663°
近地点辐角 281.085° 281.104°
升交点赤经 106.631° 106.901°
平近点角 15.063° 320.436°
近地点 2242.518km 2244.036km
远地点 38160.362km 38157.518km
周期 718.757分钟 718.730分钟
每日圈数 2.00346 2.003535
Detailed Information
平衡模式:
三轴稳定
覆盖范围:
全球
运营商:
俄罗斯国家航天集团
运营商所在国:
俄罗斯
制造商(研发单位):
普里克拉德诺伊·梅哈尼基设计局
制造商所在国:
俄罗斯联邦
使用方式:
暂无
Satellite Introduction
闪电(Molniya (Satellite))系列卫星是苏联/俄罗斯于1965年至2004年间发射的军事和通信卫星。这些卫星使用高度偏心的椭圆轨道,称为Molniya轨道(即闪电轨道),在高纬度地区具有较长的停留时间。该卫星状态未知。
2D Orbit Map
3D Orbit Map
Orbit Altitude Analysis Chart
Orbit Inclination Analysis Chart
Orbit Comprehensive Analysis Chart
View Comprehensive Chart